Time,TemperatureF,DewpointF,PressureIn,WindDirection,WindDirectionDegrees,WindSpeedMPH,WindSpeedGustMPH,Humidity,HourlyPrecipIn,Conditions,Clouds,dailyrainin,SoftwareType,DateUTC
2013-03-30 00:00:00,39.6,30.7,30.17,West,278,3.0,7.0,70,0.00,,,0.00,WUHU216DAVISVP2,2013-03-30 04:00:00,
2013-03-30 00:02:00,39.6,30.7,30.17,WNW,284,3.0,7.0,70,0.00,,,0.00,WUHU216DAVISVP2,2013-03-30 04:02:00,
2013-03-30 00:09:00,39.5,30.6,30.17,NW,314,2.0,7.0,70,0.00,,,0.00,WUHU216DAVISVP2,2013-03-30 04:09:00,
2013-03-30 00:14:00,39.6,30.7,30.17,WNW,288,3.0,9.0,70,0.00,,,0.00,WUHU216DAVISVP2,2013-03-30 04:14:00,
2013-03-30 00:20:00,39.6,30.7,30.17,WNW,285,4.0,9.0,70,0.00,,,0.00,WUHU216DAVISVP2,2013-03-30 04:20:00,
2013-03-30 00:25:00,39.4,30.4,30.17,WNW,302,2.0,9.0,70,0.00,,,0.00,WUHU216DAVISVP2,2013-03-30 04:25:00,
2013-03-30 00:31:00,39.3,30.7,30.17,NW,305,6.0,8.0,71,0.00,,,0.00,WUHU216DAVISVP2,2013-03-30 04:31:00,
2013-03-30 00:38:00,39.2,30.6,30.17,West,276,2.0,8.0,71,0.00,,,0.00,WUHU216DAVISVP2,2013-03-30 04:38:00,
2013-03-30 00:43:00,38.9,30.4,30.17,NW,304,8.0,9.0,71,0.00,,,0.00,WUHU216DAVISVP2,2013-03-30 04:43:00,
2013-03-30 00:48:00,38.9,30.7,30.17,WNW,283,2.0,9.0,72,0.00,,,0.00,WUHU216DAVISVP2,2013-03-30 04:48:00,
2013-03-30 00:54:00,38.7,30.5,30.17,WNW,287,3.0,9.0,72,0.00,,,0.00,WUHU216DAVISVP2,2013-03-30 04:54:00,
2013-03-30 00:59:00,38.6,30.4,30.17,West,278,2.0,9.0,72,0.00,,,0.00,WUHU216DAVISVP2,2013-03-30 04:59:00,
2013-03-30 01:04:00,38.3,30.5,30.17,NW,304,1.0,8.0,73,0.00,,,0.00,WUHU216DAVISVP2,2013-03-30 05:04:00,
2013-03-30 01:09:00,38.1,30.3,30.17,West,274,5.0,8.0,73,0.00,,,0.00,WUHU216DAVISVP2,2013-03-30 05:09:00,
2013-03-30 01:14:00,38.1,30.3,30.17,West,278,3.0,8.0,73,0.00,,,0.00,WUHU216DAVISVP2,2013-03-30 05:14:00,
2013-03-30 01:19:00,38.0,30.2,30.17,WNW,296,1.0,8.0,73,0.00,,,0.00,WUHU216DAVISVP2,2013-03-30 05:19:00,
2013-03-30 01:24:00,38.0,30.5,30.17,WNW,284,3.0,8.0,74,0.00,,,0.00,WUHU216DAVISVP2,2013-03-30 05:24:00,
2013-03-30 01:29:00,37.8,30.3,30.17,West,280,2.0,8.0,74,0.00,,,0.00,WUHU216DAVISVP2,2013-03-30 05:29:00,
2013-03-30 01:35:00,37.6,30.1,30.17,West,266,2.0,7.0,74,0.00,,,0.00,WUHU216DAVISVP2,2013-03-30 05:35:00,
2013-03-30 01:40:00,37.3,30.1,30.17,West,274,2.0,6.0,75,0.00,,,0.00,WUHU216DAVISVP2,2013-03-30 05:40:00,
2013-03-30 01:45:00,37.1,30.3,30.17,WSW,250,1.0,6.0,76,0.00,,,0.00,WUHU216DAVISVP2,2013-03-30 05:45:00,
2013-03-30 01:51:00,36.9,30.1,30.17,West,271,2.0,3.0,76,0.00,,,0.00,WUHU216DAVISVP2,2013-03-30 05:51:00,
2013-03-30 01:56:00,36.5,30.0,30.17,West,270,2.0,4.0,77,0.00,,,0.00,WUHU216DAVISVP2,2013-03-30 05:56:00,
2013-03-30 02:02:00,36.3,29.8,30.17,WSW,256,4.0,5.0,77,0.00,,,0.00,WUHU216DAVISVP2,2013-03-30 06:02:00,
2013-03-30 02:07:00,36.3,30.1,30.17,WSW,255,1.0,5.0,78,0.00,,,0.00,WUHU216DAVISVP2,2013-03-30 06:07:00,
2013-03-30 02:13:00,36.3,30.1,30.17,West,271,5.0,7.0,78,0.00,,,0.00,WUHU216DAVISVP2,2013-03-30 06:13:00,
2013-03-30 02:18:00,36.4,29.9,30.17,WNW,300,2.0,8.0,77,0.00,,,0.00,WUHU216DAVISVP2,2013-03-30 06:18:00,
2013-03-30 02:24:00,36.3,29.8,30.17,West,277,1.0,8.0,77,0.00,,,0.00,WUHU216DAVISVP2,2013-03-30 06:24:00,
2013-03-30 02:29:00,36.1,29.9,30.17,WNW,291,3.0,8.0,78,0.00,,,0.00,WUHU216DAVISVP2,2013-03-30 06:29:00,
2013-03-30 02:34:00,36.0,29.8,30.17,NW,308,2.0,6.0,78,0.00,,,0.00,WUHU216DAVISVP2,2013-03-30 06:34:00,
2013-03-30 02:40:00,35.9,29.7,30.17,West,280,1.0,6.0,78,0.00,,,0.00,WUHU216DAVISVP2,2013-03-30 06:40:00,
2013-03-30 02:45:00,35.9,29.7,30.17,WSW,256,2.0,6.0,78,0.00,,,0.00,WUHU216DAVISVP2,2013-03-30 06:45:00,
2013-03-30 02:51:00,35.9,29.7,30.17,WNW,295,1.0,5.0,78,0.00,,,0.00,WUHU216DAVISVP2,2013-03-30 06:51:00,
2013-03-30 02:56:00,35.9,29.4,30.17,WNW,288,2.0,5.0,77,0.00,,,0.00,WUHU216DAVISVP2,2013-03-30 06:56:00,
2013-03-30 03:01:00,35.7,29.5,30.17,West,280,3.0,5.0,78,0.00,,,0.00,WUHU216DAVISVP2,2013-03-30 07:01:00,
2013-03-30 03:07:00,35.7,29.2,30.17,West,264,1.0,6.0,77,0.00,,,0.00,WUHU216DAVISVP2,2013-03-30 07:07:00,
2013-03-30 03:12:00,35.6,29.1,30.17,WNW,293,2.0,6.0,77,0.00,,,0.00,WUHU216DAVISVP2,2013-03-30 07:12:00,
2013-03-30 03:17:00,35.5,29.0,30.17,WNW,291,1.0,6.0,77,0.00,,,0.00,WUHU216DAVISVP2,2013-03-30 07:17:00,
2013-03-30 03:22:00,35.5,29.0,30.17,WSW,248,1.0,5.0,77,0.00,,,0.00,WUHU216DAVISVP2,2013-03-30 07:22:00,
2013-03-30 03:29:00,35.4,28.6,30.17,WNW,290,0.0,4.0,76,0.00,,,0.00,WUHU216DAVISVP2,2013-03-30 07:29:00,
2013-03-30 03:34:00,35.3,28.5,30.17,WSW,253,1.0,4.0,76,0.00,,,0.00,WUHU216DAVISVP2,2013-03-30 07:34:00,
2013-03-30 03:39:00,35.3,28.5,30.17,NW,308,3.0,5.0,76,0.00,,,0.00,WUHU216DAVISVP2,2013-03-30 07:39:00,
2013-03-30 03:44:00,35.3,28.5,30.17,WNW,287,1.0,5.0,76,0.00,,,0.00,WUHU216DAVISVP2,2013-03-30 07:44:00,
2013-03-30 03:49:00,35.2,28.4,30.17,West,277,0.0,5.0,76,0.00,,,0.00,WUHU216DAVISVP2,2013-03-30 07:49:00,
2013-03-30 03:55:00,35.1,28.3,30.17,West,274,1.0,5.0,76,0.00,,,0.00,WUHU216DAVISVP2,2013-03-30 07:55:00,
2013-03-30 04:00:00,35.1,28.3,30.17,WSW,249,3.0,4.0,76,0.00,,,0.00,WUHU216DAVISVP2,2013-03-30 08:00:00,
2013-03-30 04:06:00,35.1,28.3,30.17,WNW,284,1.0,3.0,76,0.00,,,0.00,WUHU216DAVISVP2,2013-03-30 08:06:00,
2013-03-30 04:12:00,35.1,28.3,30.17,WNW,290,3.0,3.0,76,0.00,,,0.00,WUHU216DAVISVP2,2013-03-30 08:12:00,
2013-03-30 04:17:00,34.9,28.1,30.17,WSW,243,1.0,3.0,76,0.00,,,0.00,WUHU216DAVISVP2,2013-03-30 08:17:00,
2013-03-30 04:22:00,34.8,28.0,30.17,West,280,5.0,5.0,76,0.00,,,0.00,WUHU216DAVISVP2,2013-03-30 08:22:00,
2013-03-30 04:27:00,34.8,28.0,30.17,WSW,246,2.0,5.0,76,0.00,,,0.00,WUHU216DAVISVP2,2013-03-30 08:27:00,
2013-03-30 04:32:00,34.6,28.2,30.17,WSW,256,3.0,5.0,77,0.00,,,0.00,WUHU216DAVISVP2,2013-03-30 08:32:00,
2013-03-30 04:37:00,34.6,27.8,30.17,West,264,3.0,5.0,76,0.00,,,0.00,WUHU216DAVISVP2,2013-03-30 08:37:00,
2013-03-30 04:43:00,34.6,27.8,30.17,West,266,3.0,4.0,76,0.00,,,0.00,WUHU216DAVISVP2,2013-03-30 08:43:00,
2013-03-30 04:48:00,34.6,27.8,30.17,SW,233,0.0,4.0,76,0.00,,,0.00,WUHU216DAVISVP2,2013-03-30 08:48:00,
2013-03-30 04:53:00,34.5,27.4,30.17,WSW,250,2.0,4.0,75,0.00,,,0.00,WUHU216DAVISVP2,2013-03-30 08:53:00,
2013-03-30 04:58:00,34.5,27.4,30.17,WSW,252,1.0,4.0,75,0.00,,,0.00,WUHU216DAVISVP2,2013-03-30 08:58:00,
2013-03-30 05:05:00,34.3,27.2,30.17,WSW,253,1.0,4.0,75,0.00,,,0.00,WUHU216DAVISVP2,2013-03-30 09:05:00,
2013-03-30 05:10:00,33.9,27.2,30.18,West,273,0.0,3.0,76,0.00,,,0.00,WUHU216DAVISVP2,2013-03-30 09:10:00,
2013-03-30 05:15:00,33.9,27.2,30.18,West,268,0.0,4.0,76,0.00,,,0.00,WUHU216DAVISVP2,2013-03-30 09:15:00,
2013-03-30 05:21:00,34.1,27.0,30.18,West,281,0.0,4.0,75,0.00,,,0.00,WUHU216DAVISVP2,2013-03-30 09:21:00,
2013-03-30 05:26:00,33.8,26.8,30.18,West,277,0.0,4.0,75,0.00,,,0.00,WUHU216DAVISVP2,2013-03-30 09:26:00,
2013-03-30 05:32:00,33.4,27.0,30.18,WSW,257,0.0,4.0,77,0.00,,,0.00,WUHU216DAVISVP2,2013-03-30 09:32:00,
2013-03-30 05:34:00,33.1,27.0,30.18,SW,229,0.0,4.0,78,0.00,,,0.00,WUHU216DAVISVP2,2013-03-30 09:34:00,
2013-03-30 05:39:00,33.2,27.1,30.18,WSW,248,0.0,2.0,78,0.00,,,0.00,WUHU216DAVISVP2,2013-03-30 09:39:00,
2013-03-30 05:44:00,33.3,26.9,30.18,WSW,252,1.0,2.0,77,0.00,,,0.00,WUHU216DAVISVP2,2013-03-30 09:44:00,
2013-03-30 05:49:00,33.4,27.0,30.19,WSW,250,0.0,2.0,77,0.00,,,0.00,WUHU216DAVISVP2,2013-03-30 09:49:00,
2013-03-30 05:55:00,33.2,26.8,30.19,WSW,255,2.0,2.0,77,0.00,,,0.00,WUHU216DAVISVP2,2013-03-30 09:55:00,
2013-03-30 06:00:00,33.3,26.9,30.19,West,274,1.0,3.0,77,0.00,,,0.00,WUHU216DAVISVP2,2013-03-30 10:00:00,
2013-03-30 06:05:00,33.2,26.8,30.19,West,260,0.0,3.0,77,0.00,,,0.00,WUHU216DAVISVP2,2013-03-30 10:05:00,
2013-03-30 06:11:00,33.3,26.6,30.19,NW,304,3.0,7.0,76,0.00,,,0.00,WUHU216DAVISVP2,2013-03-30 10:11:00,
2013-03-30 06:16:00,33.4,26.6,30.19,West,281,1.0,7.0,76,0.00,,,0.00,WUHU216DAVISVP2,2013-03-30 10:16:00,
2013-03-30 06:21:00,33.4,26.6,30.19,WNW,289,0.0,7.0,76,0.00,,,0.00,WUHU216DAVISVP2,2013-03-30 10:21:00,
2013-03-30 06:27:00,33.3,26.5,30.19,West,261,1.0,7.0,76,0.00,,,0.00,WUHU216DAVISVP2,2013-03-30 10:27:00,
2013-03-30 06:32:00,33.3,26.5,30.19,West,260,1.0,3.0,76,0.00,,,0.00,WUHU216DAVISVP2,2013-03-30 10:32:00,
2013-03-30 06:37:00,33.3,26.5,30.19,West,278,0.0,3.0,76,0.00,,,0.00,WUHU216DAVISVP2,2013-03-30 10:37:00,
2013-03-30 06:42:00,33.3,26.5,30.19,WNW,291,0.0,3.0,76,0.00,,,0.00,WUHU216DAVISVP2,2013-03-30 10:42:00,
2013-03-30 06:48:00,33.3,26.6,30.19,WSW,257,1.0,2.0,76,0.00,,,0.00,WUHU216DAVISVP2,2013-03-30 10:48:00,
2013-03-30 06:53:00,33.4,26.7,30.20,WSW,256,2.0,3.0,76,0.00,,,0.00,WUHU216DAVISVP2,2013-03-30 10:53:00,
2013-03-30 06:58:00,33.3,26.6,30.20,West,267,1.0,3.0,76,0.00,,,0.00,WUHU216DAVISVP2,2013-03-30 10:58:00,
2013-03-30 07:04:00,33.5,26.8,30.20,West,281,3.0,4.0,76,0.00,,,0.00,WUHU216DAVISVP2,2013-03-30 11:04:00,
2013-03-30 07:09:00,33.6,26.6,30.20,West,269,1.0,4.0,75,0.00,,,0.00,WUHU216DAVISVP2,2013-03-30 11:09:00,
2013-03-30 07:14:00,34.0,27.0,30.20,WNW,291,3.0,5.0,75,0.00,,,0.00,WUHU216DAVISVP2,2013-03-30 11:14:00,
2013-03-30 07:20:00,34.2,26.8,30.20,West,276,2.0,5.0,74,0.00,,,0.00,WUHU216DAVISVP2,2013-03-30 11:20:00,
2013-03-30 07:25:00,34.5,26.8,30.20,West,280,3.0,6.0,73,0.00,,,0.00,WUHU216DAVISVP2,2013-03-30 11:25:00,
2013-03-30 07:30:00,34.8,27.1,30.20,WNW,288,4.0,8.0,73,0.00,,,0.00,WUHU216DAVISVP2,2013-03-30 11:30:00,
2013-03-30 07:36:00,35.1,27.0,30.20,West,280,5.0,8.0,72,0.00,,,0.00,WUHU216DAVISVP2,2013-03-30 11:36:00,
2013-03-30 07:41:00,35.3,27.2,30.20,WSW,248,0.0,8.0,72,0.00,,,0.00,WUHU216DAVISVP2,2013-03-30 11:41:00,
2013-03-30 07:48:00,35.5,27.1,30.21,NW,309,3.0,6.0,71,0.00,,,0.00,WUHU216DAVISVP2,2013-03-30 11:48:00,
2013-03-30 07:53:00,35.6,27.1,30.21,West,262,4.0,5.0,71,0.00,,,0.00,WUHU216DAVISVP2,2013-03-30 11:53:00,
2013-03-30 07:59:00,35.7,27.3,30.21,WSW,240,2.0,5.0,71,0.00,,,0.00,WUHU216DAVISVP2,2013-03-30 11:59:00,
2013-03-30 08:04:00,36.0,27.2,30.21,West,266,2.0,5.0,70,0.00,,,0.00,WUHU216DAVISVP2,2013-03-30 12:04:00,
2013-03-30 08:09:00,36.3,27.5,30.21,WNW,298,2.0,5.0,70,0.00,,,0.00,WUHU216DAVISVP2,2013-03-30 12:09:00,
2013-03-30 08:15:00,36.5,27.4,30.21,WNW,290,6.0,6.0,69,0.00,,,0.00,WUHU216DAVISVP2,2013-03-30 12:15:00,
2013-03-30 08:20:00,36.8,27.7,30.21,WNW,283,4.0,6.0,69,0.00,,,0.00,WUHU216DAVISVP2,2013-03-30 12:20:00,
2013-03-30 08:25:00,37.1,27.5,30.21,WSW,252,7.0,7.0,68,0.00,,,0.00,WUHU216DAVISVP2,2013-03-30 12:25:00,
2013-03-30 08:31:00,37.3,27.8,30.21,West,260,5.0,7.0,68,0.00,,,0.00,WUHU216DAVISVP2,2013-03-30 12:31:00,
2013-03-30 08:37:00,37.7,28.2,30.21,West,278,2.0,6.0,68,0.00,,,0.00,WUHU216DAVISVP2,2013-03-30 12:37:00,
2013-03-30 08:42:00,37.9,28.0,30.21,West,269,2.0,6.0,67,0.00,,,0.00,WUHU216DAVISVP2,2013-03-30 12:42:00,
2013-03-30 08:47:00,38.5,28.6,30.21,West,278,2.0,6.0,67,0.00,,,0.00,WUHU216DAVISVP2,2013-03-30 12:47:00,
2013-03-30 08:54:00,38.7,28.4,30.21,NW,307,1.0,8.0,66,0.00,,,0.00,WUHU216DAVISVP2,2013-03-30 12:54:00,
2013-03-30 08:59:00,39.2,29.2,30.21,West,262,7.0,9.0,67,0.00,,,0.00,WUHU216DAVISVP2,2013-03-30 12:59:00,
2013-03-30 09:04:00,39.5,29.2,30.21,WSW,246,4.0,9.0,66,0.00,,,0.00,WUHU216DAVISVP2,2013-03-30 13:04:00,
2013-03-30 09:09:00,39.9,29.2,30.21,WNW,285,2.0,9.0,65,0.00,,,0.00,WUHU216DAVISVP2,2013-03-30 13:09:00,
2013-03-30 09:15:00,40.2,29.1,30.21,NW,312,2.0,9.0,64,0.00,,,0.00,WUHU216DAVISVP2,2013-03-30 13:15:00,
2013-03-30 09:21:00,40.3,29.1,30.22,NW,319,3.0,9.0,64,0.00,,,0.00,WUHU216DAVISVP2,2013-03-30 13:21:00,
2013-03-30 09:27:00,40.9,29.3,30.21,NW,318,5.0,9.0,63,0.00,,,0.00,WUHU216DAVISVP2,2013-03-30 13:27:00,
2013-03-30 09:32:00,40.8,29.3,30.21,NNW,329,2.0,9.0,63,0.00,,,0.00,WUHU216DAVISVP2,2013-03-30 13:32:00,
2013-03-30 09:37:00,40.8,28.9,30.22,WNW,302,3.0,10.0,62,0.00,,,0.00,WUHU216DAVISVP2,2013-03-30 13:37:00,
2013-03-30 09:43:00,40.9,29.3,30.22,NNW,338,4.0,10.0,63,0.00,,,0.00,WUHU216DAVISVP2,2013-03-30 13:43:00,
2013-03-30 09:48:00,41.2,29.2,30.22,NW,321,5.0,10.0,62,0.00,,,0.00,WUHU216DAVISVP2,2013-03-30 13:48:00,
2013-03-30 09:53:00,41.3,29.6,30.22,WNW,290,4.0,8.0,63,0.00,,,0.00,WUHU216DAVISVP2,2013-03-30 13:53:00,
2013-03-30 09:59:00,41.3,29.3,30.22,WSW,255,4.0,8.0,62,0.00,,,0.00,WUHU216DAVISVP2,2013-03-30 13:59:00,
2013-03-30 10:04:00,41.6,30.0,30.22,NNW,341,3.0,9.0,63,0.00,,,0.00,WUHU216DAVISVP2,2013-03-30 14:04:00,
2013-03-30 10:09:00,41.5,29.5,30.22,NNW,340,4.0,9.0,62,0.00,,,0.00,WUHU216DAVISVP2,2013-03-30 14:09:00,
2013-03-30 10:15:00,41.6,29.6,30.21,NE,44,2.0,9.0,62,0.00,,,0.00,WUHU216DAVISVP2,2013-03-30 14:15:00,
2013-03-30 10:21:00,41.8,29.8,30.21,NNW,341,2.0,8.0,62,0.00,,,0.00,WUHU216DAVISVP2,2013-03-30 14:21:00,
2013-03-30 10:26:00,42.4,30.0,30.21,NNW,336,3.0,8.0,61,0.00,,,0.00,WUHU216DAVISVP2,2013-03-30 14:26:00,
2013-03-30 10:32:00,42.8,29.9,30.21,NW,307,4.0,8.0,60,0.00,,,0.00,WUHU216DAVISVP2,2013-03-30 14:32:00,
2013-03-30 10:38:00,43.1,30.1,30.21,North,349,2.0,7.0,60,0.00,,,0.00,WUHU216DAVISVP2,2013-03-30 14:38:00,
2013-03-30 10:45:00,44.1,30.7,30.21,North,5,3.0,6.0,59,0.00,,,0.00,WUHU216DAVISVP2,2013-03-30 14:45:00,
2013-03-30 10:50:00,44.7,30.4,30.21,SW,226,1.0,6.0,57,0.00,,,0.00,WUHU216DAVISVP2,2013-03-30 14:50:00,
2013-03-30 10:55:00,44.6,29.9,30.21,NW,316,5.0,7.0,56,0.00,,,0.00,WUHU216DAVISVP2,2013-03-30 14:55:00,
2013-03-30 11:00:00,44.4,30.2,30.21,WNW,288,3.0,7.0,57,0.00,,,0.00,WUHU216DAVISVP2,2013-03-30 15:00:00,
2013-03-30 11:06:00,44.9,31.1,30.20,SW,236,5.0,7.0,58,0.00,,,0.00,WUHU216DAVISVP2,2013-03-30 15:06:00,
2013-03-30 11:13:00,45.2,30.5,30.21,West,262,6.0,8.0,56,0.00,,,0.00,WUHU216DAVISVP2,2013-03-30 15:13:00,
2013-03-30 11:18:00,45.0,29.8,30.20,NNW,338,5.0,8.0,55,0.00,,,0.00,WUHU216DAVISVP2,2013-03-30 15:18:00,
2013-03-30 11:24:00,45.6,29.5,30.20,WNW,284,7.0,8.0,53,0.00,,,0.00,WUHU216DAVISVP2,2013-03-30 15:24:00,
2013-03-30 11:29:00,45.7,30.0,30.20,West,264,9.0,9.0,54,0.00,,,0.00,WUHU216DAVISVP2,2013-03-30 15:29:00,
2013-03-30 11:35:00,45.5,28.9,30.20,West,260,3.0,9.0,52,0.00,,,0.00,WUHU216DAVISVP2,2013-03-30 15:35:00,
2013-03-30 11:40:00,45.9,29.3,30.20,West,281,7.0,9.0,52,0.00,,,0.00,WUHU216DAVISVP2,2013-03-30 15:40:00,
2013-03-30 11:46:00,46.1,29.4,30.20,South,190,1.0,9.0,52,0.00,,,0.00,WUHU216DAVISVP2,2013-03-30 15:46:00,
2013-03-30 11:51:00,46.7,28.5,30.20,West,264,2.0,10.0,49,0.00,,,0.00,WUHU216DAVISVP2,2013-03-30 15:51:00,
2013-03-30 11:57:00,46.9,28.7,30.20,WSW,250,7.0,10.0,49,0.00,,,0.00,WUHU216DAVISVP2,2013-03-30 15:57:00,
2013-03-30 12:02:00,47.3,28.5,30.20,West,273,1.0,10.0,48,0.00,,,0.00,WUHU216DAVISVP2,2013-03-30 16:02:00,
2013-03-30 12:08:00,47.7,28.4,30.20,NNW,340,4.0,9.0,47,0.00,,,0.00,WUHU216DAVISVP2,2013-03-30 16:08:00,
2013-03-30 12:13:00,48.5,29.1,30.19,NW,304,2.0,8.0,47,0.00,,,0.00,WUHU216DAVISVP2,2013-03-30 16:13:00,
2013-03-30 12:18:00,48.2,25.4,30.19,SW,224,2.0,9.0,41,0.00,,,0.00,WUHU216DAVISVP2,2013-03-30 16:18:00,
2013-03-30 12:23:00,48.5,25.1,30.19,WSW,248,4.0,9.0,40,0.00,,,0.00,WUHU216DAVISVP2,2013-03-30 16:23:00,
2013-03-30 12:30:00,48.8,26.7,30.19,NNW,346,1.0,10.0,42,0.00,,,0.00,WUHU216DAVISVP2,2013-03-30 16:30:00,
2013-03-30 12:36:00,49.5,28.5,30.19,WSW,256,4.0,10.0,44,0.00,,,0.00,WUHU216DAVISVP2,2013-03-30 16:36:00,
2013-03-30 12:42:00,49.3,27.2,30.18,NNW,335,3.0,10.0,42,0.00,,,0.00,WUHU216DAVISVP2,2013-03-30 16:42:00,
2013-03-30 12:48:00,49.3,26.4,30.18,SSW,201,1.0,10.0,41,0.00,,,0.00,WUHU216DAVISVP2,2013-03-30 16:48:00,
2013-03-30 12:54:00,50.0,26.4,30.18,West,271,5.0,10.0,40,0.00,,,0.00,WUHU216DAVISVP2,2013-03-30 16:54:00,
2013-03-30 12:59:00,49.6,26.7,30.17,WNW,294,9.0,10.0,41,0.00,,,0.00,WUHU216DAVISVP2,2013-03-30 16:59:00,
2013-03-30 13:04:00,49.7,26.8,30.17,NNW,333,3.0,13.0,41,0.00,,,0.00,WUHU216DAVISVP2,2013-03-30 17:04:00,
2013-03-30 13:09:00,49.7,25.7,30.17,SW,228,4.0,13.0,39,0.00,,,0.00,WUHU216DAVISVP2,2013-03-30 17:09:00,
2013-03-30 13:15:00,50.1,25.5,30.17,NNW,340,1.0,13.0,38,0.00,,,0.00,WUHU216DAVISVP2,2013-03-30 17:15:00,
2013-03-30 13:20:00,50.1,24.8,30.17,West,271,3.0,11.0,37,0.00,,,0.00,WUHU216DAVISVP2,2013-03-30 17:20:00,
2013-03-30 13:27:00,49.8,25.2,30.17,WSW,240,4.0,11.0,38,0.00,,,0.00,WUHU216DAVISVP2,2013-03-30 17:27:00,
2013-03-30 13:32:00,50.0,24.5,30.16,WSW,252,10.0,13.0,37,0.00,,,0.00,WUHU216DAVISVP2,2013-03-30 17:32:00,
2013-03-30 13:37:00,49.9,25.1,30.16,WSW,253,9.0,13.0,38,0.00,,,0.00,WUHU216DAVISVP2,2013-03-30 17:37:00,
2013-03-30 13:42:00,50.4,25.5,30.16,NW,314,4.0,13.0,38,0.00,,,0.00,WUHU216DAVISVP2,2013-03-30 17:42:00,
2013-03-30 13:47:00,50.5,25.0,30.16,WSW,253,4.0,13.0,37,0.00,,,0.00,WUHU216DAVISVP2,2013-03-30 17:47:00,
2013-03-30 13:54:00,50.8,24.6,30.16,WSW,237,6.0,12.0,36,0.00,,,0.00,WUHU216DAVISVP2,2013-03-30 17:54:00,
2013-03-30 13:59:00,51.1,24.2,30.16,WNW,285,3.0,11.0,35,0.00,,,0.00,WUHU216DAVISVP2,2013-03-30 17:59:00,
2013-03-30 14:05:00,51.4,25.1,30.16,West,267,3.0,11.0,36,0.00,,,0.00,WUHU216DAVISVP2,2013-03-30 18:05:00,
2013-03-30 14:10:00,50.3,24.8,30.16,WNW,285,0.0,11.0,37,0.00,,,0.00,WUHU216DAVISVP2,2013-03-30 18:10:00,
2013-03-30 14:17:00,50.3,25.4,30.15,SW,219,3.0,9.0,38,0.00,,,0.00,WUHU216DAVISVP2,2013-03-30 18:17:00,
2013-03-30 14:22:00,50.5,25.0,30.15,WNW,295,5.0,10.0,37,0.00,,,0.00,WUHU216DAVISVP2,2013-03-30 18:22:00,
2013-03-30 14:29:00,51.4,25.1,30.15,West,267,3.0,10.0,36,0.00,,,0.00,WUHU216DAVISVP2,2013-03-30 18:29:00,
2013-03-30 14:34:00,51.8,25.5,30.15,West,275,4.0,10.0,36,0.00,,,0.00,WUHU216DAVISVP2,2013-03-30 18:34:00,
2013-03-30 14:40:00,51.8,25.5,30.15,NNE,23,2.0,17.0,36,0.00,,,0.00,WUHU216DAVISVP2,2013-03-30 18:40:00,
2013-03-30 14:45:00,51.4,24.4,30.15,NNW,348,4.0,17.0,35,0.00,,,0.00,WUHU216DAVISVP2,2013-03-30 18:45:00,
2013-03-30 14:50:00,50.9,25.3,30.14,SE,131,2.0,17.0,37,0.00,,,0.00,WUHU216DAVISVP2,2013-03-30 18:50:00,
2013-03-30 14:55:00,51.1,24.8,30.14,West,277,4.0,11.0,36,0.00,,,0.00,WUHU216DAVISVP2,2013-03-30 18:55:00,
2013-03-30 15:01:00,51.2,24.2,30.14,NW,305,6.0,11.0,35,0.00,,,0.00,WUHU216DAVISVP2,2013-03-30 19:01:00,
2013-03-30 15:06:00,50.9,24.7,30.14,NW,319,5.0,8.0,36,0.00,,,0.00,WUHU216DAVISVP2,2013-03-30 19:06:00,
2013-03-30 15:12:00,50.6,25.1,30.14,NW,309,3.0,9.0,37,0.00,,,0.00,WUHU216DAVISVP2,2013-03-30 19:12:00,
2013-03-30 15:19:00,50.4,25.5,30.14,West,266,3.0,9.0,38,0.00,,,0.00,WUHU216DAVISVP2,2013-03-30 19:19:00,
2013-03-30 15:24:00,50.4,25.5,30.14,ENE,65,2.0,9.0,38,0.00,,,0.00,WUHU216DAVISVP2,2013-03-30 19:24:00,
2013-03-30 15:30:00,51.0,25.4,30.13,NW,325,3.0,8.0,37,0.00,,,0.00,WUHU216DAVISVP2,2013-03-30 19:30:00,
2013-03-30 15:35:00,51.2,24.2,30.13,NW,308,1.0,8.0,35,0.00,,,0.00,WUHU216DAVISVP2,2013-03-30 19:35:00,
2013-03-30 15:40:00,51.2,23.5,30.13,WNW,293,4.0,8.0,34,0.00,,,0.00,WUHU216DAVISVP2,2013-03-30 19:40:00,
2013-03-30 15:46:00,51.1,23.5,30.14,West,276,3.0,9.0,34,0.00,,,0.00,WUHU216DAVISVP2,2013-03-30 19:46:00,
2013-03-30 15:51:00,51.0,23.4,30.13,NW,325,0.0,9.0,34,0.00,,,0.00,WUHU216DAVISVP2,2013-03-30 19:51:00,
2013-03-30 15:56:00,51.4,23.7,30.13,NNW,339,9.0,10.0,34,0.00,,,0.00,WUHU216DAVISVP2,2013-03-30 19:56:00,
2013-03-30 16:02:00,51.6,24.6,30.13,North,1,3.0,11.0,35,0.00,,,0.00,WUHU216DAVISVP2,2013-03-30 20:02:00,
2013-03-30 16:07:00,52.1,23.6,30.13,North,1,5.0,11.0,33,0.00,,,0.00,WUHU216DAVISVP2,2013-03-30 20:07:00,
2013-03-30 16:12:00,53.0,23.7,30.12,WSW,242,7.0,11.0,32,0.00,,,0.00,WUHU216DAVISVP2,2013-03-30 20:12:00,
2013-03-30 16:17:00,52.5,23.2,30.12,West,264,2.0,11.0,32,0.00,,,0.00,WUHU216DAVISVP2,2013-03-30 20:17:00,
2013-03-30 16:22:00,52.6,23.3,30.12,NNW,345,1.0,11.0,32,0.00,,,0.00,WUHU216DAVISVP2,2013-03-30 20:22:00,
2013-03-30 16:28:00,52.3,22.3,30.12,WNW,285,5.0,11.0,31,0.00,,,0.00,WUHU216DAVISVP2,2013-03-30 20:28:00,
2013-03-30 16:33:00,52.2,23.0,30.12,NW,316,3.0,11.0,32,0.00,,,0.00,WUHU216DAVISVP2,2013-03-30 20:33:00,
2013-03-30 16:39:00,52.5,23.2,30.12,WSW,245,2.0,11.0,32,0.00,,,0.00,WUHU216DAVISVP2,2013-03-30 20:39:00,
2013-03-30 16:44:00,53.4,24.0,30.12,NW,305,12.0,12.0,32,0.00,,,0.00,WUHU216DAVISVP2,2013-03-30 20:44:00,
2013-03-30 16:49:00,53.2,22.3,30.12,WNW,295,7.0,16.0,30,0.00,,,0.00,WUHU216DAVISVP2,2013-03-30 20:49:00,
2013-03-30 16:54:00,53.2,24.6,30.12,West,263,5.0,16.0,33,0.00,,,0.00,WUHU216DAVISVP2,2013-03-30 20:54:00,
2013-03-30 16:59:00,52.8,23.7,30.12,West,267,2.0,16.0,32,0.00,,,0.00,WUHU216DAVISVP2,2013-03-30 20:59:00,
2013-03-30 17:04:00,52.9,23.0,30.11,NNW,338,5.0,16.0,31,0.00,,,0.00,WUHU216DAVISVP2,2013-03-30 21:04:00,
2013-03-30 17:10:00,52.8,27.9,30.11,NNE,27,1.0,12.0,38,0.00,,,0.00,WUHU216DAVISVP2,2013-03-30 21:10:00,
2013-03-30 17:18:00,52.2,28.0,30.11,NE,39,7.0,10.0,39,0.00,,,0.00,WUHU216DAVISVP2,2013-03-30 21:18:00,
2013-03-30 17:24:00,51.0,27.5,30.11,NNE,25,6.0,12.0,40,0.00,,,0.00,WUHU216DAVISVP2,2013-03-30 21:24:00,
2013-03-30 17:29:00,51.1,28.2,30.11,NE,34,3.0,12.0,41,0.00,,,0.00,WUHU216DAVISVP2,2013-03-30 21:29:00,
2013-03-30 17:34:00,51.3,28.4,30.12,North,1,5.0,11.0,41,0.00,,,0.00,WUHU216DAVISVP2,2013-03-30 21:34:00,
2013-03-30 17:40:00,51.2,28.3,30.11,NE,34,7.0,11.0,41,0.00,,,0.00,WUHU216DAVISVP2,2013-03-30 21:40:00,
2013-03-30 17:45:00,50.9,27.9,30.11,North,6,4.0,10.0,41,0.00,,,0.00,WUHU216DAVISVP2,2013-03-30 21:45:00,
2013-03-30 17:51:00,50.6,27.6,30.12,NW,326,3.0,10.0,41,0.00,,,0.00,WUHU216DAVISVP2,2013-03-30 21:51:00,
2013-03-30 17:56:00,50.4,27.4,30.12,NNW,347,5.0,9.0,41,0.00,,,0.00,WUHU216DAVISVP2,2013-03-30 21:56:00,
2013-03-30 18:02:00,50.2,26.8,30.12,North,353,5.0,9.0,40,0.00,,,0.00,WUHU216DAVISVP2,2013-03-30 22:02:00,
2013-03-30 18:07:00,50.1,27.3,30.12,ENE,60,3.0,9.0,41,0.00,,,0.00,WUHU216DAVISVP2,2013-03-30 22:07:00,
2013-03-30 18:14:00,49.8,27.6,30.12,NNE,25,4.0,10.0,42,0.00,,,0.00,WUHU216DAVISVP2,2013-03-30 22:14:00,
2013-03-30 18:19:00,49.6,26.7,30.12,NE,54,5.0,10.0,41,0.00,,,0.00,WUHU216DAVISVP2,2013-03-30 22:19:00,
2013-03-30 18:24:00,49.5,27.2,30.12,NE,44,8.0,10.0,42,0.00,,,0.00,WUHU216DAVISVP2,2013-03-30 22:24:00,
2013-03-30 18:29:00,49.2,26.3,30.12,NE,56,4.0,9.0,41,0.00,,,0.00,WUHU216DAVISVP2,2013-03-30 22:29:00,
2013-03-30 18:35:00,49.1,26.8,30.12,NE,51,4.0,9.0,42,0.00,,,0.00,WUHU216DAVISVP2,2013-03-30 22:35:00,
2013-03-30 18:40:00,49.0,26.7,30.12,NNE,16,2.0,9.0,42,0.00,,,0.00,WUHU216DAVISVP2,2013-03-30 22:40:00,
2013-03-30 18:45:00,49.0,27.3,30.12,North,357,2.0,8.0,43,0.00,,,0.00,WUHU216DAVISVP2,2013-03-30 22:45:00,
2013-03-30 18:50:00,48.8,26.6,30.12,NNE,25,6.0,7.0,42,0.00,,,0.00,WUHU216DAVISVP2,2013-03-30 22:50:00,
2013-03-30 18:55:00,48.6,26.4,30.12,NE,47,7.0,8.0,42,0.00,,,0.00,WUHU216DAVISVP2,2013-03-30 22:55:00,
2013-03-30 19:01:00,48.4,26.8,30.12,NE,49,2.0,8.0,43,0.00,,,0.00,WUHU216DAVISVP2,2013-03-30 23:01:00,
2013-03-30 19:06:00,48.1,27.1,30.12,NE,34,5.0,8.0,44,0.00,,,0.00,WUHU216DAVISVP2,2013-03-30 23:06:00,
2013-03-30 19:11:00,47.7,26.7,30.12,NE,38,5.0,7.0,44,0.00,,,0.00,WUHU216DAVISVP2,2013-03-30 23:11:00,
2013-03-30 19:16:00,47.3,27.0,30.12,NE,41,1.0,7.0,45,0.00,,,0.00,WUHU216DAVISVP2,2013-03-30 23:16:00,
2013-03-30 19:22:00,47.0,26.7,30.12,North,349,1.0,6.0,45,0.00,,,0.00,WUHU216DAVISVP2,2013-03-30 23:22:00,
2013-03-30 19:27:00,46.5,26.8,30.13,North,358,4.0,7.0,46,0.00,,,0.00,WUHU216DAVISVP2,2013-03-30 23:27:00,
2013-03-30 19:32:00,46.1,27.0,30.12,NE,40,3.0,7.0,47,0.00,,,0.00,WUHU216DAVISVP2,2013-03-30 23:32:00,
2013-03-30 19:38:00,45.7,27.6,30.12,NE,41,3.0,7.0,49,0.00,,,0.00,WUHU216DAVISVP2,2013-03-30 23:38:00,
2013-03-30 19:43:00,45.3,27.7,30.12,NE,40,5.0,7.0,50,0.00,,,0.00,WUHU216DAVISVP2,2013-03-30 23:43:00,
2013-03-30 19:49:00,45.1,27.5,30.12,NE,41,3.0,5.0,50,0.00,,,0.00,WUHU216DAVISVP2,2013-03-30 23:49:00,
2013-03-30 19:55:00,44.8,26.7,30.12,NE,49,3.0,5.0,49,0.00,,,0.00,WUHU216DAVISVP2,2013-03-30 23:55:00,
2013-03-30 20:01:00,44.7,26.6,30.12,NE,43,2.0,4.0,49,0.00,,,0.00,WUHU216DAVISVP2,2013-03-31 00:01:00,
2013-03-30 20:06:00,44.3,26.8,30.12,NE,49,2.0,3.0,50,0.00,,,0.00,WUHU216DAVISVP2,2013-03-31 00:06:00,
2013-03-30 20:12:00,44.1,26.6,30.12,NE,45,1.0,4.0,50,0.00,,,0.00,WUHU216DAVISVP2,2013-03-31 00:12:00,
2013-03-30 20:17:00,43.9,26.9,30.12,NNE,27,2.0,4.0,51,0.00,,,0.00,WUHU216DAVISVP2,2013-03-31 00:17:00,
2013-03-30 20:24:00,43.7,26.7,30.11,NE,37,3.0,4.0,51,0.00,,,0.00,WUHU216DAVISVP2,2013-03-31 00:24:00,
2013-03-30 20:29:00,43.5,26.5,30.12,NE,39,1.0,4.0,51,0.00,,,0.00,WUHU216DAVISVP2,2013-03-31 00:29:00,
2013-03-30 20:36:00,43.3,26.8,30.12,NE,36,1.0,4.0,52,0.00,,,0.00,WUHU216DAVISVP2,2013-03-31 00:36:00,
2013-03-30 20:41:00,43.1,27.1,30.12,NE,44,0.0,4.0,53,0.00,,,0.00,WUHU216DAVISVP2,2013-03-31 00:41:00,
2013-03-30 20:46:00,43.0,26.6,30.12,NNE,33,1.0,3.0,52,0.00,,,0.00,WUHU216DAVISVP2,2013-03-31 00:46:00,
2013-03-30 20:52:00,43.0,26.6,30.12,NE,47,2.0,4.0,52,0.00,,,0.00,WUHU216DAVISVP2,2013-03-31 00:52:00,
2013-03-30 20:57:00,42.8,25.4,30.12,ENE,61,1.0,4.0,50,0.00,,,0.00,WUHU216DAVISVP2,2013-03-31 00:57:00,
2013-03-30 21:02:00,42.8,25.9,30.12,NE,44,0.0,4.0,51,0.00,,,0.00,WUHU216DAVISVP2,2013-03-31 01:02:00,
2013-03-30 21:08:00,42.4,26.0,30.12,NE,44,0.0,4.0,52,0.00,,,0.00,WUHU216DAVISVP2,2013-03-31 01:08:00,
2013-03-30 21:13:00,42.0,26.1,30.12,NE,44,1.0,4.0,53,0.00,,,0.00,WUHU216DAVISVP2,2013-03-31 01:13:00,
2013-03-30 21:18:00,42.1,25.7,30.12,NE,46,1.0,2.0,52,0.00,,,0.00,WUHU216DAVISVP2,2013-03-31 01:18:00,
2013-03-30 21:23:00,42.0,26.1,30.12,NNW,340,1.0,2.0,53,0.00,,,0.00,WUHU216DAVISVP2,2013-03-31 01:23:00,
2013-03-30 21:30:00,41.6,26.2,30.12,NNW,337,0.0,2.0,54,0.00,,,0.00,WUHU216DAVISVP2,2013-03-31 01:30:00,
2013-03-30 21:35:00,41.6,26.2,30.12,NE,39,1.0,2.0,54,0.00,,,0.00,WUHU216DAVISVP2,2013-03-31 01:35:00,
2013-03-30 21:40:00,41.7,25.8,30.12,ENE,61,1.0,2.0,53,0.00,,,0.00,WUHU216DAVISVP2,2013-03-31 01:40:00,
2013-03-30 21:45:00,41.0,26.5,30.12,WNW,301,0.0,2.0,56,0.00,,,0.00,WUHU216DAVISVP2,2013-03-31 01:45:00,
2013-03-30 21:51:00,40.5,26.1,30.12,WNW,301,0.0,2.0,56,0.00,,,0.00,WUHU216DAVISVP2,2013-03-31 01:51:00,
2013-03-30 21:56:00,40.0,26.0,30.12,WNW,301,0.0,1.0,57,0.00,,,0.00,WUHU216DAVISVP2,2013-03-31 01:56:00,
2013-03-30 22:01:00,39.9,25.9,30.11,WNW,301,0.0,1.0,57,0.00,,,0.00,WUHU216DAVISVP2,2013-03-31 02:01:00,
2013-03-30 22:07:00,39.8,25.8,30.11,East,101,1.0,1.0,57,0.00,,,0.00,WUHU216DAVISVP2,2013-03-31 02:07:00,
2013-03-30 22:12:00,39.3,26.2,30.11,ESE,102,0.0,1.0,59,0.00,,,0.00,WUHU216DAVISVP2,2013-03-31 02:12:00,
2013-03-30 22:17:00,39.3,26.2,30.11,ESE,103,0.0,1.0,59,0.00,,,0.00,WUHU216DAVISVP2,2013-03-31 02:17:00,
2013-03-30 22:23:00,39.4,26.7,30.11,ESE,103,0.0,1.0,60,0.00,,,0.00,WUHU216DAVISVP2,2013-03-31 02:23:00,
2013-03-30 22:29:00,39.5,26.0,30.11,East,101,0.0,1.0,58,0.00,,,0.00,WUHU216DAVISVP2,2013-03-31 02:29:00,
2013-03-30 22:34:00,39.5,25.6,30.11,ESE,103,0.0,1.0,57,0.00,,,0.00,WUHU216DAVISVP2,2013-03-31 02:34:00,
2013-03-30 22:40:00,39.6,26.1,30.11,ESE,114,0.0,1.0,58,0.00,,,0.00,WUHU216DAVISVP2,2013-03-31 02:40:00,
2013-03-30 22:45:00,39.6,26.1,30.11,SE,124,1.0,1.0,58,0.00,,,0.00,WUHU216DAVISVP2,2013-03-31 02:45:00,
2013-03-30 22:50:00,39.6,26.5,30.10,SE,124,1.0,1.0,59,0.00,,,0.00,WUHU216DAVISVP2,2013-03-31 02:50:00,
2013-03-30 22:55:00,39.5,26.4,30.10,ESE,120,1.0,1.0,59,0.00,,,0.00,WUHU216DAVISVP2,2013-03-31 02:55:00,
2013-03-30 23:00:00,39.4,26.7,30.10,ESE,120,0.0,1.0,60,0.00,,,0.00,WUHU216DAVISVP2,2013-03-31 03:00:00,
2013-03-30 23:05:00,39.3,26.6,30.10,ESE,120,0.0,1.0,60,0.00,,,0.00,WUHU216DAVISVP2,2013-03-31 03:05:00,
2013-03-30 23:11:00,39.2,26.5,30.10,East,101,0.0,1.0,60,0.00,,,0.00,WUHU216DAVISVP2,2013-03-31 03:11:00,
2013-03-30 23:16:00,39.2,26.5,30.10,East,101,0.0,1.0,60,0.00,,,0.00,WUHU216DAVISVP2,2013-03-31 03:16:00,
2013-03-30 23:24:00,38.9,26.3,30.09,East,101,0.0,1.0,60,0.00,,,0.00,WUHU216DAVISVP2,2013-03-31 03:24:00,
2013-03-30 23:29:00,38.8,26.2,30.09,ESE,102,0.0,1.0,60,0.00,,,0.00,WUHU216DAVISVP2,2013-03-31 03:29:00,
2013-03-30 23:34:00,38.5,26.3,30.09,East,101,0.0,0.0,61,0.00,,,0.00,WUHU216DAVISVP2,2013-03-31 03:34:00,
2013-03-30 23:39:00,38.0,26.2,30.09,East,101,0.0,1.0,62,0.00,,,0.00,WUHU216DAVISVP2,2013-03-31 03:39:00,
2013-03-30 23:44:00,37.7,26.7,30.09,South,181,0.0,1.0,64,0.00,,,0.00,WUHU216DAVISVP2,2013-03-31 03:44:00,
2013-03-30 23:50:00,37.7,27.1,30.09,South,172,0.0,1.0,65,0.00,,,0.00,WUHU216DAVISVP2,2013-03-31 03:50:00,
2013-03-30 23:56:00,37.6,26.5,30.09,South,172,0.0,1.0,64,0.00,,,0.00,WUHU216DAVISVP2,2013-03-31 03:56:00,